Regional Weather Roundup
Issued by NWS Wakefield, VA

Home | Current Version | Previous Version | Graphics & Text | Print | Product List | Glossary On
Versions: 1 2 3 4 5 6 7 8 9 10 11 12 13 14 15 16 17 18 19 20 21 22 23 24 25 26 27 28 29 30 31 32 33 34 35 36 37 38 39 40 41 42 43 44 45 46 47 48 49 50
000
ASUS41 KAKQ 250914
RWRAKQ

REGIONAL WEATHER ROUNDUP
NATIONAL WEATHER SERVICE WAKEFIELD VA
500 AM EDT SAT APR 25 2015

Note: "fair" indicates few or no clouds below 12,000 feet with no
significant weather and/or obstructions to visibility. * = Denotes
station may not report precipitation (e.g., rain,snow,etc.),
thunder or fog.

VAZ042-051-052>054-056-251000-
NORTHERN VIRGINIA

CITY           SKY/WX    TMP DP  RH WIND       PRES   REMARKS
WASH NATIONAL  CLOUDY    49  30  48 N5        29.97F
DULLES         CLOUDY    44  26  49 N5        29.96F
FORT BELVOIR   CLOUDY    46  28  47 NW3       29.96F
QUANTICO       CLOUDY    51  23  33 NE9       29.97F
FREDERICKSBRG* MOCLDY    45  32  61 CALM      29.95R
STAFFORD*      MOCLDY    47  19  32 N6        29.99R
WARRENTON      CLOUDY    46  31  56 NE3       29.95S
CULPEPER*      CLOUDY    45  34  65 CALM      29.96S
MANASSAS*      CLOUDY    46  27  46 N6        29.97S
LEESBURG*      CLOUDY    43  32  65 NW5       29.97F
WINCHESTER     CLOUDY    45  14  29 CALM      29.96S
FRONT ROYAL*   CLOUDY    41  32  70 CALM      29.95F
LURAY*         CLOUDY    41  36  81 CALM      29.95F
$$

VAZ048-049-060>072-079>083-251000-
CENTRAL AND SOUTH CENTRAL VIRGINIA

CITY           SKY/WX    TMP DP  RH WIND       PRES   REMARKS
RICHMOND       CLOUDY    46  35  65 CALM      29.94F
CHESTERFIELD*  PTSUNNY   43  27  52 CALM      29.95F
PETERSBURG*    MOCLDY    39  38  94 CALM      29.94F
HANOVER        MOCLDY    41  33  73 CALM      29.96F
TAPPAHANNOCK*  MOCLDY    38  32  80 CALM      29.96R
QUINTON*       FAIR      42  38  85 E3        29.94F
CHARLOTTSVILLE CLOUDY    42  31  64 CALM      29.93S
GORDONSVILLE*  FAIR      38  33  80 CALM      29.93S
ORANGE*        CLOUDY    39  34  81 CALM      29.96S
LOUISA*        MOCLDY    41  34  75 NE3       29.94R
BUMPASS*       PTSUNNY   41  34  77 CALM      29.95R
FARMVILLE*     CLOUDY    46  40  79 CALM      29.92S
CREWE*         CLOUDY    40  37  89 CALM      29.92F
FORT PICKETT*  PTSUNNY   45  36  71 S5        29.93F
CHASE CITY*    CLOUDY    51  33  48 E3        29.92S
CLARKSVILLE*   FAIR      48  34  57 E6        29.91F
SOUTH HILL*    CLOUDY    46  33  59 CALM      29.97F
LAWRENCEVILLE* FAIR      46  35  66 NE3       29.92F
EMPORIA*       MOCLDY    41  36  81 CALM      29.94F
$$

VAZ088>098-251000-
SOUTHEAST VIRGINIA

CITY           SKY/WX    TMP DP  RH WIND       PRES   REMARKS
NORFOLK        MOCLDY    49  37  63 CALM      29.93F
VIRGINIA BEACH MOCLDY    45  37  73 CALM      29.93F
NORFOLK NAVAL  MOCLDY    52  38  58 S3        29.95F
WEST POINT*    PTCLDY    40  36  84 CALM      29.95F
SALUDA*        PTSUNNY   39  37  91 CALM      29.94R
NEWPORT NEWS   MOCLDY    44  39  82 CALM      29.93F
LANGLEY AFB    PTCLDY    44  41  88 SW2       29.92F
FORT EUSTIS    MOCLDY    46  45  96 NE1       29.92F
WILLIAMSBURG*  MOCLDY    46  43  87 CALM      29.95S
HR EXEC AP*    FAIR      39  36  87 CALM      29.95F
FRANKLIN*      MOCLDY    41  39  93 CALM      29.94F
WAKEFIELD      MOCLDY    42  39  89 CALM      29.94F
$$

VAZ020-022-025-037-045-251000-
WEST CENTRAL AND SOUTHWEST VIRGINIA

CITY           SKY/WX    TMP DP  RH WIND       PRES   REMARKS
STAUNTON*      CLOUDY    40  33  73 CALM      29.95S
WAYNESBORO*    CLOUDY    43  30  59 CALM      29.92F
HOT SPRINGS VA CLOUDY    43  13  29 S3        29.90R
LYNCHBURG      CLOUDY    49  29  46 NE5       29.93S
DANVILLE       CLOUDY    48  42  80 CALM      29.92S
SOUTH BOSTON*  PTSUNNY   43  41  93 CALM      29.92S
MARTINSVILLE   CLOUDY    47  41  80 NE6       29.91F
ROANOKE        CLOUDY    49  30  48 CALM      29.94F
BLACKSBURG     CLOUDY    45  31  58 CALM      29.95R
DUBLIN*        LGT RAIN  46  40  82 CALM      29.92F
MARION*        CLOUDY    48  32  54 E6        29.91F
HILLSVILLE*    CLOUDY    47  30  52 CALM      29.90F
RICHLANDS*     CLOUDY    50  -5  10 NE5       29.87F
WISE*          CLOUDY    54  28  37 CALM      29.88S
ABINGDON*      CLOUDY    53  38  55 CALM      29.88R
$$

MDZ021>025-VAZ099-100-251000-
SOUTHERN MARYLAND AND THE DELMARVA PENINSULA

CITY           SKY/WX    TMP DP  RH WIND       PRES   REMARKS
PATUXENT RIVER PTCLDY    47  30  51 N6        29.94F
BAY BRIDGE APT   N/A    N/A N/A N/A E6        29.97F
LEONARDTOWN    PTCLDY    41  30  65 CALM      29.96F
DOVER          CLEAR     38  28  69 N1        29.93S
GEORGETOWN     CLEAR     38  29  70 CALM      29.97S
EASTON         CLEAR     40  31  71 E5        30.00F
CAMBRIDGE      CLEAR     43  30  61 E5        29.96S
SALISBURY      CLEAR     38  31  76 E6        29.96S
OCEAN CITY     CLEAR     44  31  60 NE7       29.97R
WALLOPS ISLAND CLEAR     45  38  76 NE14G21   29.95F
ACCOMACK*      CLEAR     45  28  53 NE7       29.94F
$$

NCZ012>017-030>032-251000-
NORTH CENTRAL AND EASTERN NORTH CAROLINA

CITY           SKY/WX    TMP DP  RH WIND       PRES   REMARKS
ROANOKE RAPIDS FAIR      37  37 100 CALM      29.93S
RALEIGH        MOCLDY    45  40  82 NE3       29.90F
ELIZABETH CITY PTCLDY    50  44  80 E8        29.93F
AHOSKIE*       MOCLDY    41  38  89 CALM      29.93F
EDENTON*       PTCLDY    47  40  77 N3        29.93F
CURRITUCK*     PTCLDY    52  37  56 CALM      29.95S
KILL DEVIL HLS PTCLDY    50  44  81 E3        29.92F
MANTEO         PTCLDY    47  45  90 NE3       29.93F
CAPE HATTERAS  CLEAR     55  45  68 W9        29.93S
TARBORO*       FAIR      43  42  93 CALM      29.93F
GOLDSBORO      PTCLDY    52  45  75 S1        29.90F
WASHINGTON     PTCLDY    50  42  73 SW3       29.93S
GREENVILLE     PTCLDY    50  41  71 CALM      29.93F
NEW BERN       PTCLDY    50  43  77 SW6       29.95F
WILMINGTON     CLEAR     51  47  86 CALM      29.94F
$$

VAZ048-251000-
ELSEWHERE

CITY           SKY/WX    TMP DP  RH WIND       PRES   REMARKS
HARRISBURG PA  CLEAR     35  23  61 N3        29.96F
BALTIMORE      PTCLDY    37  27  67 N3        29.96F
ANNAPOLIS      PTCLDY    45  30  55 E6        29.96F
ANDREWS AFB    MOCLDY    43  28  56 N7        29.95F
PHILADELPHIA   PTCLDY    41  22  46 W8        29.98R
HENDERSON NC   PTCLDY    43  39  87 CALM      29.91F
GREENSBORO     CLOUDY    51  40  65 N3        29.89F
ROCKY MOUNT    CLEAR     45  41  86 S3        29.92F
$$

VAZ100-251000-
MARINE

STATION/POSITION TIME  TEMP    WIND        PRES    WAVE   SWELL
                       AIR SEA DIR/SP/G            HT/PER HT/PER
                 (UTC) (F)     (DEG/KT/KT) (MB)    (FT/S) (FT/S)
BRANDYWINE LGT   0800   44 51   30/ 13/ 17 1014.8R
CAPE MAY NJ      0800   40 55   50/  3/  5 1014.4S
LEWES DE         0800   45 52   50/ 13/ 15 1014.7R
15NM E FENWICK I 0850   44 46              1014.6R   2/ 4
OCEAN-CITY-INLET 0800   45 50   70/  9/ 16 1014.3R
WACHAPREAGUE VA  0800   46 57  340/  4/  5 1013.6F
THOMAS POINT MD  0900   45 53   60/ 10/ 11 1015.3F
GOOSES REEF MD   0900   47 53  100/ 14/ 16   N/A     2/ 2
COVE POINT MD    0800   51      20/ 13/ 15 1014.9R
SOLOMONS ISLAND  0800      55                N/A
BISHOPS HEAD MD  0800   49 54  360/  6/  9 1013.8R
PINEY POINT MD   0806           40/  3/  4   N/A
CAMBRIDGE MD     0800   47 58   70/ 12/ 14 1014.4R
LEWISETTA VA     0800   48 57              1014.0F
RAPPAHANNOCK LGT 0800          340/ 12/ 15 1014.1F
YORK RVR RNG VA  0800   54     240/  5/  6 1013.4R
YORKTOWN VA      0800   49 60  210/  7/  8 1013.6R
JAMESTOWN VA     0900   52 65  190/  4/  6 1012.7F
DOMINION TERM VA 0800   53     160/ 10/ 11 1013.9R
KIPTOPEKE VA     0806      62  210/  5/  6   N/A
CHES BAY BRIDGE  0800   53 56  170/  8/ 10 1013.5R
CAPE HENRY VA    0800   51     190/  8/ 10 1012.6R
CHESAPEAKE LGHT  0800   53     190/ 11/ 12 1014.3F
WILLOUBY STN VA  0806   52     170/  9/ 10 1014.4S
S CRANEY ISL VA  0800          160/  7/  8 1014.0R
CAPE HENRY BUOY  0828      52                N/A     2/14
1ST LANDING BUOY 0900                      1013.1F   1
OFFSHORE WE BUOY 0811      50                N/A     2/13   2/13
64NM E OF VA BCH 0850   57 62  230/  8/  8 1013.3F   2/14   2/14
DUCK PIER NC     0800   53 55   80/  9/ 10 1012.8S
44056 DUCK FRF   0811      54                N/A     2/13   2/13
OREGON INLET NC  0800   51 61   60/  2/  4 1013.5R
HATTERAS NC      0800   60 65  240/  6/  9 1012.9F
DIAMOND SHLS NC  0850   65 71  250/ 14/ 17 1013.4S   4/10   3/10
CAPE LOOKOUT NC  0900   61     260/  7/  9 1013.5F
$$



USA.gov is the U.S. government's official web portal to all federal, state and local government web resources and services.